Meteo pe oră la Bolshie Kaskevichi

Astăzi, 18 Mai, Marţi

Timp Temperatura Precipitaţii Vânt Presiune Umiditate
00:00 +12°C° 0.8 mm 3 m/s 733 mmHg 97%
01:00 +12°C° 0.8 mm 3 m/s 733 mmHg 98%
02:00 +13°C° 0.8 mm 2 m/s 733 mmHg 98%
03:00 +14°C° 0 mm 2 m/s 733 mmHg 98%
04:00 +14°C° 0 mm 2 m/s 733 mmHg 98%
05:00 +13°C° 0 mm 3 m/s 733 mmHg 98%
06:00 +14°C° 0 mm 3 m/s 733 mmHg 97%
07:00 +14°C° 0 mm 3 m/s 733 mmHg 95%
08:00 +14°C° 0 mm 3 m/s 734 mmHg 93%
09:00 +15°C° 0 mm 4 m/s 734 mmHg 90%
10:00 +17°C° 0 mm 4 m/s 734 mmHg 86%
11:00 +18°C° 0 mm 4 m/s 735 mmHg 82%
12:00 +18°C° 0 mm 3 m/s 734 mmHg 79%
13:00 +19°C° 0 mm 3 m/s 734 mmHg 75%
14:00 +20°C° 0 mm 3 m/s 734 mmHg 72%
15:00 +20°C° 0.4 mm 2 m/s 734 mmHg 74%
16:00 +19°C° 0.4 mm 2 m/s 734 mmHg 76%
17:00 +20°C° 0.4 mm 1 m/s 733 mmHg 79%
18:00 +19°C° 0.9 mm 1 m/s 733 mmHg 84%
19:00 +16°C° 0.9 mm 2 m/s 733 mmHg 90%
20:00 +15°C° 0.9 mm 2 m/s 733 mmHg 95%
21:00 +15°C° 0.6 mm 2 m/s 733 mmHg 95%
22:00 +15°C° 0.6 mm 1 m/s 733 mmHg 96%
23:00 +15°C° 0.6 mm 1 m/s 733 mmHg 96%

Mâine, 19 Mai, Miercuri

Timp Temperatura Precipitaţii Vânt Presiune Umiditate
00:00 +14°C° 1.7 mm 1 m/s 733 mmHg 97%
01:00 +14°C° 1.7 mm 1 m/s 733 mmHg 97%
02:00 +14°C° 1.7 mm 1 m/s 733 mmHg 98%
03:00 +14°C° 0.4 mm 1 m/s 733 mmHg 98%
04:00 +14°C° 0.4 mm 1 m/s 733 mmHg 97%
05:00 +13°C° 0.4 mm 1 m/s 733 mmHg 97%
06:00 +14°C° 0.1 mm 1 m/s 733 mmHg 95%
07:00 +15°C° 0.1 mm 2 m/s 734 mmHg 93%
08:00 +16°C° 0.1 mm 2 m/s 734 mmHg 90%
09:00 +16°C° 0.5 mm 2 m/s 734 mmHg 88%
10:00 +17°C° 0.5 mm 3 m/s 734 mmHg 86%
11:00 +17°C° 0.5 mm 3 m/s 735 mmHg 85%
12:00 +17°C° 0.4 mm 3 m/s 735 mmHg 86%
13:00 +16°C° 0.4 mm 3 m/s 735 mmHg 87%
14:00 +16°C° 0.4 mm 3 m/s 735 mmHg 88%
15:00 +14°C° 0.2 mm 4 m/s 736 mmHg 89%
16:00 +14°C° 0.2 mm 4 m/s 736 mmHg 89%
17:00 +13°C° 0.2 mm 4 m/s 736 mmHg 90%
18:00 +12°C° 0.1 mm 4 m/s 736 mmHg 92%
19:00 +12°C° 0.1 mm 4 m/s 737 mmHg 93%
20:00 +11°C° 0.1 mm 4 m/s 737 mmHg 94%
21:00 +11°C° 0.6 mm 4 m/s 737 mmHg 95%
22:00 +10°C° 0.6 mm 4 m/s 737 mmHg 96%
23:00 +10°C° 0.6 mm 3 m/s 737 mmHg 97%

Poimâine, 20 Mai, Joi

Timp Temperatura Precipitaţii Vânt Presiune Umiditate
00:00 +10°C° 1.5 mm 4 m/s 736 mmHg 97%
01:00 +9°C° 1.5 mm 5 m/s 736 mmHg 97%
02:00 +9°C° 1.5 mm 5 m/s 735 mmHg 97%
03:00 +9°C° 3.3 mm 6 m/s 735 mmHg 97%
04:00 +8°C° 3.3 mm 6 m/s 735 mmHg 96%
05:00 +8°C° 3.3 mm 7 m/s 735 mmHg 96%
06:00 +8°C° 3.5 mm 7 m/s 735 mmHg 96%
07:00 +8°C° 3.5 mm 7 m/s 735 mmHg 96%
08:00 +7°C° 3.5 mm 8 m/s 734 mmHg 96%
09:00 +7°C° 1.3 mm 8 m/s 734 mmHg 95%
10:00 +7°C° 1.3 mm 8 m/s 734 mmHg 95%
11:00 +6°C° 1.3 mm 8 m/s 734 mmHg 95%
12:00 +6°C° 2.7 mm 8 m/s 734 mmHg 95%
13:00 +6°C° 2.7 mm 8 m/s 734 mmHg 95%
14:00 +6°C° 2.7 mm 8 m/s 734 mmHg 95%
15:00 +6°C° 2.5 mm 9 m/s 735 mmHg 94%
16:00 +5°C° 2.5 mm 9 m/s 735 mmHg 94%
17:00 +5°C° 2.5 mm 9 m/s 735 mmHg 93%
18:00 +6°C° 1 mm 9 m/s 736 mmHg 93%
19:00 +6°C° 1 mm 9 m/s 736 mmHg 92%
20:00 +6°C° 1 mm 9 m/s 737 mmHg 92%
21:00 +6°C° 0.7 mm 8 m/s 737 mmHg 92%
22:00 +6°C° 0.7 mm 8 m/s 737 mmHg 92%
23:00 +6°C° 0.7 mm 7 m/s 738 mmHg 92%

21 Mai, Vineri

Timp Temperatura Precipitaţii Vânt Presiune Umiditate
00:00 +6°C° 0.2 mm 7 m/s 738 mmHg 92%
01:00 +6°C° 0.2 mm 7 m/s 738 mmHg 92%
02:00 +8°C° 0.2 mm 7 m/s 739 mmHg 92%
03:00 +6°C° 0 mm 7 m/s 739 mmHg 91%
04:00 +5°C° 0 mm 6 m/s 740 mmHg 91%
05:00 +5°C° 0 mm 6 m/s 740 mmHg 91%
06:00 +7°C° 0 mm 6 m/s 741 mmHg 86%
07:00 +8°C° 0 mm 6 m/s 741 mmHg 82%
08:00 +9°C° 0 mm 6 m/s 742 mmHg 78%
09:00 +10°C° 0 mm 5 m/s 742 mmHg 71%
10:00 +12°C° 0 mm 5 m/s 742 mmHg 64%
11:00 +14°C° 0 mm 5 m/s 743 mmHg 57%
12:00 +14°C° 0 mm 5 m/s 743 mmHg 56%
13:00 +15°C° 0 mm 5 m/s 743 mmHg 55%
14:00 +15°C° 0 mm 5 m/s 743 mmHg 53%
15:00 +15°C° 0 mm 5 m/s 743 mmHg 56%
16:00 +15°C° 0 mm 4 m/s 744 mmHg 59%
17:00 +15°C° 0 mm 4 m/s 744 mmHg 62%
18:00 +13°C° 0 mm 3 m/s 744 mmHg 67%
19:00 +11°C° 0 mm 3 m/s 744 mmHg 73%
20:00 +9°C° 0 mm 2 m/s 745 mmHg 78%
21:00 +9°C° 0 mm 2 m/s 745 mmHg 80%
22:00 +8°C° 0 mm 2 m/s 745 mmHg 83%
23:00 +8°C° 0 mm 1 m/s 745 mmHg 85%

22 Mai, Sâmbătă

Timp Temperatura Precipitaţii Vânt Presiune Umiditate
00:00 +8°C° 0 mm 1 m/s 745 mmHg 84%
01:00 +7°C° 0 mm 1 m/s 746 mmHg 84%
02:00 +6°C° 0 mm 0 m/s 746 mmHg 83%
03:00 +6°C° 0 mm 0 m/s 746 mmHg 83%
04:00 +6°C° 0 mm 0 m/s 746 mmHg 82%
05:00 +8°C° 0 mm 1 m/s 746 mmHg 81%
06:00 +10°C° 0 mm 1 m/s 746 mmHg 77%
07:00 +11°C° 0 mm 1 m/s 746 mmHg 73%
08:00 +13°C° 0 mm 2 m/s 746 mmHg 69%
09:00 +14°C° 0 mm 2 m/s 746 mmHg 64%
10:00 +14°C° 0 mm 3 m/s 746 mmHg 59%
11:00 +17°C° 0 mm 3 m/s 746 mmHg 55%
12:00 +17°C° 0 mm 3 m/s 745 mmHg 53%
13:00 +18°C° 0 mm 3 m/s 745 mmHg 52%
14:00 +18°C° 0 mm 3 m/s 745 mmHg 50%
15:00 +18°C° 0 mm 3 m/s 745 mmHg 53%
16:00 +18°C° 0 mm 2 m/s 745 mmHg 56%
17:00 +18°C° 0 mm 2 m/s 744 mmHg 59%
18:00 +16°C° 0 mm 2 m/s 744 mmHg 65%
19:00 +15°C° 0 mm 2 m/s 744 mmHg 71%
20:00 +13°C° 0 mm 2 m/s 744 mmHg 78%
21:00 +12°C° 0 mm 2 m/s 744 mmHg 79%
22:00 +10°C° 0 mm 2 m/s 744 mmHg 80%
23:00 +10°C° 0 mm 2 m/s 744 mmHg 81%

23 Mai, Duminică

Timp Temperatura Precipitaţii Vânt Presiune Umiditate
00:00 +10°C° 0 mm 2 m/s 743 mmHg 83%
01:00 +9°C° 0 mm 2 m/s 743 mmHg 84%
02:00 +9°C° 0 mm 3 m/s 743 mmHg 86%
03:00 +9°C° 0 mm 3 m/s 743 mmHg 88%
04:00 +10°C° 0 mm 3 m/s 742 mmHg 89%
05:00 +10°C° 0 mm 2 m/s 742 mmHg 91%
06:00 +11°C° 0 mm 3 m/s 742 mmHg 87%
07:00 +13°C° 0 mm 4 m/s 741 mmHg 84%
08:00 +14°C° 0 mm 5 m/s 741 mmHg 80%
09:00 +15°C° 0.4 mm 5 m/s 741 mmHg 79%
10:00 +15°C° 0.4 mm 5 m/s 740 mmHg 77%
11:00 +16°C° 0.4 mm 5 m/s 740 mmHg 76%
12:00 +15°C° 0.8 mm 5 m/s 740 mmHg 81%
13:00 +13°C° 0.8 mm 6 m/s 740 mmHg 87%
14:00 +11°C° 0.8 mm 6 m/s 739 mmHg 93%
15:00 +13°C° 0.3 mm 6 m/s 740 mmHg 90%
16:00 +14°C° 0.3 mm 6 m/s 740 mmHg 86%
17:00 +14°C° 0.3 mm 6 m/s 740 mmHg 82%
18:00 +13°C° 0 mm 5 m/s 741 mmHg 84%
19:00 +12°C° 0 mm 4 m/s 741 mmHg 85%
20:00 +11°C° 0 mm 4 m/s 742 mmHg 87%
21:00 +10°C° 0 mm 4 m/s 742 mmHg 89%
22:00 +10°C° 0 mm 4 m/s 742 mmHg 91%
23:00 +9°C° 0 mm 3 m/s 743 mmHg 93%
Arată mai mult

Formular de consimțământ

Meteoprog și furnizorii noștri de servicii pot stoca și accesa date personale, precum cookies, identificatori de dispozitiv sau alte tehnologii similare pe dispozitivul dumneavoastră și procesa astfel de date pentru a personaliza conținutul și reclamele, dar și pentru a oferi caracteristici de social media și pentru a analiza traficul.

  • Stocarea și/sau accesarea informațiilor pe dispozitivul dumneavoastră

    Cookies, identificatori de dispozitiv sau alte informații pot fi stocate sau accesate pe dispozitiv în scopurile indicate mai sus.

  • Reclame și conținut personalizat, evaluarea reclamelor și a conținutului, informații despre audiențe și dezvoltarea produselor

    Reclamele și conținutul pot fi personalizate pe baza unui profil. Pot fi adăugate date suplimentare pentru a personaliza mai bine reclamele și conținutul. Performanța reclamelor și conținutului poate fi măsurată. Pot fi obținute informații despre utilizatorii care au văzut reclamele și conținutul. Aceste date pot fi utilizate pentru a dezvolta sau îmbunătăți experiența utilizatorilor, sistemele și software-ul.

Dând clic pe ‘Sunt de acord’, permiteți utilizarea cookie-urilor menționate, a identificatorilor de dispozitiv, balizelor web sau altor tehnologii similare. Setările pot fi modificate din browser-ul dispozitivului dumneavoastră.

În anumite scopuri, interesele legitime pot prima asupra consimțământului. Puteți citi mai multe informații în acest sens în Politica privind Confidențialitatea Datelor și Cookie.